Location: Unspecified
(58.9933°N, 5.6375°E)
Time: 05:41:47
(UTC+02:00)

Resurs 1-4 Rocket - Visible Passes

Search period start: 29 April 2017 00:00
Search period end: 09 May 2017 00:00
Orbit: 799 x 815 km, 98.5° (Epoch: 27 April)

Date Brightness Start Highest point End Pass type
(mag) Time Alt. Az. Time Alt. Az. Time Alt. Az.
29 Apr 4.4 02:41:32 10° NE 02:44:58 17° E 02:48:23 10° SE visible
29 Apr 2.3 04:20:28 10° NNE 04:25:46 73° ESE 04:31:02 10° S visible
30 Apr 4.6 02:18:07 10° ENE 02:19:57 12° ENE 02:21:47 10° E visible
30 Apr 2.8 03:55:56 10° NNE 04:01:06 51° E 04:06:14 10° S visible
01 May 3.4 03:31:29 10° NNE 03:36:21 36° E 03:41:11 10° SSE visible
02 May 3.9 03:07:10 10° NE 03:11:31 25° E 03:15:50 10° SE visible
02 May 2.2 04:46:39 10° NNE 04:51:57 78° WNW 04:57:14 10° SSW visible
03 May 4.3 02:43:05 10° NE 02:46:36 18° E 02:50:07 10° SE visible
03 May 2.3 04:22:04 10° NNE 04:27:22 75° ESE 04:32:40 10° SSW visible
04 May 4.6 02:19:34 10° NE 02:21:35 12° ENE 02:23:38 10° ESE visible
04 May 2.8 03:57:31 10° NNE 04:02:42 53° E 04:07:52 10° S visible
05 May 3.3 03:33:05 10° NNE 03:37:58 37° E 03:42:50 10° SSE visible
06 May 3.9 03:08:44 10° NNE 03:13:08 26° E 03:17:32 10° SE visible
07 May 4.3 02:44:38 10° NE 02:48:14 18° E 02:51:50 10° SE visible
07 May 2.3 04:23:40 10° NNE 04:28:58 77° ESE 04:34:16 10° SSW visible
08 May 4.6 02:21:01 10° NE 02:23:14 12° E 02:25:27 10° ESE visible
08 May 2.7 03:59:07 10° NNE 04:04:19 54° E 04:09:30 10° S visible
